Regional Weather Roundup
Issued by NWS Glasgow, MT

Home | Current Version | Previous Version | Text Only | Print | Product List | Glossary On
Versions: 1 2 3 4 5 6 7 8 9 10 11 12 13 14 15 16 17 18 19 20 21 22 23 24 25 26 27 28 29 30 31 32 33 34 35 36 37 38 39 40 41 42 43 44 45 46 47 48 49 50
000
ASUS45 KGGW 190315
RWRGGW
HOURLY REGIONAL WEATHER ROUNDUP FOR NORTHEAST MONTANA
NATIONAL WEATHER SERVICE GLASGOW MONTANA
800 PM MST THU JAN 18 2018

NOTE: "FAIR" INDICATES FEW OR NO CLOUDS BELOW 12,000 FEET WITH NO
SIGNIFICANT WEATHER AND/OR OBSTRUCTIONS TO VISISBILITY.

NORTHEAST MONTANA


CITY           SKY/WX    TMP DP  RH WIND       PRES   REMARKS
GLASGOW        CLOUDY    34  29  82 CALM      29.60F
PLENTYWOOD       N/A     40  30  67 W3G12       N/A
WOLF POINT     CLOUDY    32  26  78 W3        29.61F
JORDAN           N/A     35  31  85 W6        29.64F
WINNETT          N/A     34  32  92 SW2         N/A
SIDNEY         CLOUDY    35  29  78 SW15      29.62F
GLENDIVE       CLOUDY    32  26  78 S10       29.66F
MALTA            N/A     41  32  70 SW6         N/A
SCOBEY           N/A     41  27  57 SW12G17   29.57F

FORT PECK REPORTS


CITY           SKY/WX    TMP DP  RH WIND       PRES   REMARKS
FORT PECK        N/A     39  30  70 S6          N/A
THE PINES        N/A     40  30  67 SW5         N/A

SOUTHEAST MONTANA


CITY           SKY/WX    TMP DP  RH WIND       PRES   REMARKS
BILLINGS       CLOUDY    43  28  55 W13       29.67F
MILES CITY     CLOUDY    34  26  72 S9        29.67F
BAKER          CLOUDY    35  29  78 W5        29.70F
LIVINGSTON     CLOUDY    51  31  46 SW38G51   29.63F

CENTRAL MONTANA


CITY           SKY/WX    TMP DP  RH WIND       PRES   REMARKS
HAVRE          CLOUDY    37  32  82 SW10      29.63R
LEWISTOWN      CLOUDY    37  32  82 W10       29.69F
GREAT FALLS    CLOUDY    40  32  73 SW14      29.69S
CUT BANK       CLOUDY    34  30  85 SW13      29.63F
HELENA         CLOUDY    38  35  89 SE5       29.73S
BUTTE          LGT SNOW  34  31  88 N8        29.74R FOG
BOZEMAN        CLOUDY    41  29  62 N13       29.66F

WESTERN MONTANA


CITY           SKY/WX    TMP DP  RH WIND       PRES   REMARKS
MISSOULA       LGT RAIN  34  33  96 CALM      29.77F
KALISPELL      NOT AVBL

NORTH DAKOTA


CITY           SKY/WX    TMP DP  RH WIND       PRES   REMARKS
WILLISTON      CLOUDY    52  28  39 S9        29.60F
DICKINSON      CLOUDY    40  28  62 W16       29.62F
MINOT          CLOUDY    43  29  57 SW18      29.53F
BISMARCK       CLOUDY    27  24  89 CALM      29.66S

SOUTHERN SASKATCHEWAN


CITY           SKY/WX    TMP DP  RH WIND       PRES   REMARKS
REGINA         PTCLDY    36  30  80 W3        29.45R
ESTEVAN        MOCLDY    34  28  80 SW8       29.51F
SWIFT CURRENT  CLOUDY    39  30  70 SW14      29.46F




USA.gov is the U.S. government's official web portal to all federal, state and local government web resources and services.